IU8UOQ-3 Weather Reports


time (UTC)temp
C
wind
direction
speed
KPH
gust
KPH
rain 1hr
cm
rain 24hr
cm
rain mn
cm
humidity
%
barometer
mb
20260906075940 31 0.0 0.0 0.00 0.00 0.00 54 1070.4
20260906073936 31 0.0 0.0 0.00 0.00 0.00 55 1070.4
20260906071932 30 0.0 0.0 0.00 0.00 0.00 55 1070.2
20260906065927 30 0.0 0.0 0.00 0.00 0.00 56 1070.1
20260906063922 30 0.0 0.0 0.00 0.00 0.00 55 1069.9
20260906061918 31 0.0 0.0 0.00 0.00 0.00 52 1069.9
20260906055913 31 0.0 0.0 0.00 0.00 0.00 52 1069.8
20260906053908 31 0.0 0.0 0.00 0.00 0.00 52 1069.6
20260906051903 31 0.0 0.0 0.00 0.00 0.00 52 1069.5
20260906045858 31 0.0 0.0 0.00 0.00 0.00 52 1069.4
20260906043853 31 0.0 0.0 0.00 0.00 0.00 52 1069.3
20260906041848 31 0.0 0.0 0.00 0.00 0.00 51 1069.3
20260906035843 31 0.0 0.0 0.00 0.00 0.00 51 1069.1
20260906033838 31 0.0 0.0 0.00 0.00 0.00 51 1069.0
20260906031833 31 0.0 0.0 0.00 0.00 0.00 51 1068.9
20260906025829 31 0.0 0.0 0.00 0.00 0.00 51 1068.8
20260906023824 31 0.0 0.0 0.00 0.00 0.00 51 1069.1
20260906021819 31 0.0 0.0 0.00 0.00 0.00 51 1069.1
20260906015814 31 0.0 0.0 0.00 0.00 0.00 51 1069.1
20260906013809 31 0.0 0.0 0.00 0.00 0.00 50 1069.1
20260906011804 31 0.0 0.0 0.00 0.00 0.00 50 1069.1
20260906005759 31 0.0 0.0 0.00 0.00 0.00 50 1069.1
20260906003755 31 0.0 0.0 0.00 0.00 0.00 50 1069.1
20260906001750 31 0.0 0.0 0.00 0.00 0.00 49 1069.1
20260905235746 31 0.0 0.0 0.00 0.00 0.00 49 1069.3
20260905233741 31 0.0 0.0 0.00 0.00 0.00 49 1069.5
20260905231736 31 0.0 0.0 0.00 0.00 0.00 48 1069.6
20260905211708 32 0.0 0.0 0.00 0.00 0.00 47 1069.8
20260905205702 32 0.0 0.0 0.00 0.00 0.00 47 1069.9
20260905201650 32 0.0 0.0 0.00 0.00 0.00 46 1070.1
20260905195644 32 0.0 0.0 0.00 0.00 0.00 46 1069.9
20260905193638 32 0.0 0.0 0.00 0.00 0.00 46 1069.8
20260905191632 32 0.0 0.0 0.00 0.00 0.00 46 1069.8
20260905185626 32 0.0 0.0 0.00 0.00 0.00 46 1069.7
20260905183620 32 0.0 0.0 0.00 0.00 0.00 46 1069.4
20260905181616 32 0.0 0.0 0.00 0.00 0.00 46 1069.2
20260905175611 32 0.0 0.0 0.00 0.00 0.00 46 1069.1
20260905173606 32 0.0 0.0 0.00 0.00 0.00 45 1069.1
20260905171601 32 0.0 0.0 0.00 0.00 0.00 45 1069.0
20260905165557 32 0.0 0.0 0.00 0.00 0.00 45 1068.8
20260905163551 31 0.0 0.0 0.00 0.00 0.00 46 1068.8
20260905161546 31 0.0 0.0 0.00 0.00 0.00 46 1068.9
20260905155541 31 0.0 0.0 0.00 0.00 0.00 44 1068.7
20260905151247 31 0.0 0.0 0.00 0.00 0.00 42 1068.7
20260905145241 31 0.0 0.0 0.00 0.00 0.00 46 1068.8
20260905143236 31 0.0 0.0 0.00 0.00 0.00 47 1068.8
20260905141232 31 0.0 0.0 0.00 0.00 0.00 48 1069.0
20260905135227 30 0.0 0.0 0.00 0.00 0.00 50 1069.1
20260905133222 29 0.0 0.0 0.00 0.00 0.00 61 1069.1
20260905131217 29 0.0 0.0 0.00 0.00 0.00 59 1069.2
20260905125212 29 0.0 0.0 0.00 0.00 0.00 55 1069.4
20260905123207 30 0.0 0.0 0.00 0.00 0.00 48 1069.5
20260905121202 30 0.0 0.0 0.00 0.00 0.00 44 1069.8
20260905121113 30 0.0 0.0 0.00 0.00 0.00 44 1069.7
20260905120247 30 0.0 0.0 0.00 0.00 0.00 44 1069.7
20260905114242 30 0.0 0.0 0.00 0.00 0.00 46 1069.8
20260905112237 30 0.0 0.0 0.00 0.00 0.00 43 1069.9
20260905110233 30 0.0 0.0 0.00 0.00 0.00 42 1070.0
20260905104228 30 0.0 0.0 0.00 0.00 0.00 44 1069.8
20260905102224 30 0.0 0.0 0.00 0.00 0.00 44 1069.9
20260905100219 30 0.0 0.0 0.00 0.00 0.00 45 1069.9
20260905094215 30 0.0 0.0 0.00 0.00 0.00 45 1069.9
20260905092210 30 0.0 0.0 0.00 0.00 0.00 47 1069.9
20260905090205 30 0.0 0.0 0.00 0.00 0.00 49 1070.1
20260905084201 30 0.0 0.0 0.00 0.00 0.00 50 1070.0
20260905082156 30 0.0 0.0 0.00 0.00 0.00 50 1069.9
20260905080152 30 0.0 0.0 0.00 0.00 0.00 49 1070.0